Location: Acts Church of Fort Worth
(32.6786°N, 97.2668°W)
Time: 07:55:54
(UTC+00:00)

Meteor 1-12 Rocket - Pass Details

Date: 18 January 2026
Orbit: 853 x 925 km, 81.2° (Epoch: 9 February)

Event Time Altitude Azimuth Distance (km) Brightness Sun altitude
Rises 00:44:11 0° 350° (N) 3,426 7.3 -11.9°
Reaches altitude 10° 00:46:36 10° 349° (N) 2,487 6.6 -12.4°
Maximum altitude 00:52:13 77° 264° (W) 880 4.4 -13.5°
Drops below altitude 10° 00:57:51 10° 179° (S) 2,491 6.8 -14.7°
Sets 01:00:17 0° 178° (S) 3,433 7.5 -15.2°
